Location: Nairn
(57.5833°N, 3.8667°W)
Time: 02:03:57
(UTC+00:00)

SL-16 R/B - Pass Details

Date: 07 August 2020
Orbit: 841 x 849 km, 71.0° (Epoch: 27 September)

Event Time Altitude Azimuth Distance (km) Brightness Sun altitude
Rises 00:11:16 0° 318° (NW) 3,425 6.2 -16.0°
Reaches altitude 10° 00:13:57 10° 327° (NNW) 2,487 5.5 -16.1°
Maximum altitude 00:19:12 36° 33° (NNE) 1,329 3.7 -16.1°
Drops below altitude 10° 00:24:25 10° 100° (E) 2,478 4.5 -16.1°
Sets 00:27:04 0° 109° (ESE) 3,411 5.2 -16.1°
